Temp
3 3 3 3 2 2 1 0 -1 -1 -2 -3 -4 -5 -6 -7 -8 -8 -9 -9 -9 -9
3 3 2 2 2 1 0 -1 -1 -2 -3 -4 -5 -6 -6 -7 -8 -9 -9 -10 -10 -10
2 2 2 2 2 1 -0 -1 -2 -3 -3 -4 -5 -6 -7 -7 -8 -9 -10 -10 -10 -10
2 2 2 1 1 -0 -1 -2 -3 -3 -4 -4 -5 -6 -7 -8 -8 -10 -10 -10 -11 -11
1 1 1 1 -0 -1 -2 -2 -3 -4 -4 -5 -5 -6 -7 -8 -9 -10 -10 -10 -10 -10
1 1 1 -0 -1 -2 -2 -3 -3 -4 -5 -5 -5 -6 -7 -8 -9 -10 -10 -10 -10 -10
1 0 -0 -1 -2 -2 -3 -3 -4 -4 -5 -5 -6 -7 -8 -9 -10 -9 -9 -9 -9 -10
0 -1 -1 -2 -2 -2 -3 -4 -5 -5 -5 -5 -6 -7 -9 -9 -9 -9 -9 -9 -9 -9
-1 -2 -2 -2 -3 -3 -3 -4 -5 -5 -6 -6 -7 -8 -9 -8 -8 -9 -9 -9 -9 -9
-2 -2 -2 -3 -3 -3 -4 -4 -5 -6 -6 -7 -8 -9 -9 -8 -9 -9 -9 -9 -9 -9
-2 -3 -3 -3 -4 -4 -4 -5 -6 -6 -7 -8 -8 -8 -9 -9 -9 -8 -8 -8 -8 -8
-3 -3 -3 -4 -4 -5 -5 -5 -6 -7 -8 -8 -7 -8 -9 -9 -8 -8 -8 -8 -8 -8
-3 -4 -4 -5 -5 -5 -6 -7 -7 -7 -8 -8 -8 -8 -9 -9 -8 -8 -8 -7 -7 -7
-4 -4 -5 -5 -6 -7 -7 -7 -7 -7 -8 -7 -9 -9 -10 -9 -8 -8 -8 -8 -7 -7
Height
1474 1476 1476 1476 1475 1474 1472 1470 1468 1465 1462 1459 1456 1452 1449 1446 1442 1439 1437 1434 1431 1426
1470 1471 1471 1471 1470 1468 1467 1465 1463 1461 1457 1454 1451 1448 1444 1440 1436 1433 1431 1428 1424 1420
1466 1467 1467 1466 1465 1463 1461 1460 1458 1455 1452 1449 1446 1442 1439 1435 1431 1428 1425 1422 1418 1414
1462 1463 1463 1462 1460 1458 1456 1455 1453 1451 1447 1445 1442 1438 1434 1430 1426 1423 1420 1416 1412 1407
1458 1459 1459 1457 1456 1454 1452 1450 1448 1446 1442 1439 1436 1433 1430 1425 1422 1418 1414 1411 1407 1402
1454 1455 1455 1454 1452 1450 1448 1446 1444 1441 1438 1434 1431 1428 1425 1421 1417 1414 1411 1407 1402 1398
1449 1450 1450 1450 1449 1446 1443 1441 1439 1437 1433 1430 1427 1424 1420 1416 1413 1410 1406 1402 1398 1394
1444 1445 1446 1445 1445 1442 1439 1437 1434 1432 1429 1426 1422 1419 1415 1413 1409 1405 1400 1396 1393 1389
1440 1441 1441 1441 1440 1438 1435 1432 1430 1427 1424 1421 1419 1415 1413 1411 1406 1401 1396 1391 1388 1384
1436 1437 1437 1437 1436 1433 1431 1428 1425 1422 1419 1417 1414 1411 1410 1407 1402 1398 1393 1388 1384 1380
1433 1433 1434 1433 1431 1429 1427 1424 1421 1419 1415 1412 1410 1406 1404 1402 1397 1394 1389 1385 1381 1377
1430 1430 1430 1428 1427 1426 1423 1420 1418 1415 1412 1408 1404 1401 1400 1398 1392 1389 1385 1380 1377 1374
1427 1427 1426 1425 1423 1422 1420 1418 1415 1412 1409 1404 1400 1398 1396 1394 1389 1385 1380 1376 1372 1369
1424 1424 1424 1422 1420 1419 1417 1415 1412 1408 1405 1401 1398 1395 1393 1390 1387 1382 1377 1372 1366 1363
Wind_Speed
17 14 14 16 20 23 24 24 24 25 26 27 27 27 27 28 29 30 30 31 31 32
15 13 14 17 20 22 22 23 23 24 26 26 26 26 26 28 29 29 30 30 31 31
13 13 15 18 19 20 20 22 24 24 25 25 25 25 26 27 28 28 29 29 31 33
13 13 15 17 18 19 20 21 23 23 23 24 24 25 26 27 28 27 29 29 30 30
12 13 15 16 16 18 20 21 22 22 22 23 24 26 26 27 27 27 28 29 28 29
12 12 14 15 16 18 19 21 21 21 22 23 24 26 26 26 25 26 29 29 28 29
10 11 12 13 15 17 19 20 20 20 21 23 24 25 25 25 27 30 30 31 30 30
10 10 11 13 15 17 18 19 20 20 21 22 23 24 23 25 29 31 32 33 32 31
8 8 10 12 14 16 17 19 20 20 22 22 23 23 21 23 28 29 31 33 29 26
6 8 10 12 14 15 17 19 20 21 22 22 23 23 21 23 25 27 28 28 28 27
6 7 9 11 13 15 17 19 21 22 22 24 24 22 21 22 24 28 28 27 26 26
5 7 9 10 12 14 17 19 21 22 24 24 22 19 20 22 26 28 28 27 26 26
5 7 8 10 12 14 17 19 20 22 21 19 19 18 19 21 25 27 28 28 29 29
4 6 8 10 12 14 16 18 19 20 19 20 21 22 21 21 23 27 30 35 35 31
Wind_Direction
237 254 279 297 310 317 319 320 323 322 321 319 318 318 316 312 311 310 307 302 301 300
241 263 286 302 310 316 318 319 320 319 318 318 318 317 316 315 314 312 309 304 302 302
247 270 290 301 311 315 316 317 317 319 318 317 319 318 319 316 315 312 308 304 302 300
249 275 292 306 310 314 315 316 317 318 318 318 320 320 318 316 315 311 309 312 312 310
256 279 296 304 310 312 314 317 317 318 317 318 321 319 317 317 317 314 317 321 319 316
261 285 297 305 309 310 314 316 318 318 317 320 322 319 319 318 319 320 323 323 321 316
268 286 298 305 308 312 315 318 319 319 320 322 321 320 320 322 323 322 322 322 320 317
271 287 298 304 310 313 317 319 320 322 323 321 322 323 322 321 316 317 319 320 317 314
272 289 300 307 312 316 320 322 322 324 322 322 322 321 315 310 311 313 314 318 320 319
272 291 303 310 316 321 324 325 326 325 324 322 321 320 315 311 310 313 320 324 323 322
275 295 307 314 322 326 326 330 329 328 327 322 321 321 317 315 315 318 321 324 324 323
283 303 312 322 328 329 332 333 331 329 326 325 329 331 323 321 318 319 322 322 321 321
293 309 322 329 333 337 337 332 331 330 331 337 335 338 329 322 320 320 322 326 324 321
301 323 330 333 341 342 336 333 333 336 340 343 346 339 331 326 324 322 322 319 320 318